Location: Laterina
(43.5167°N, 11.7167°E)
Time: 16:16:14
(UTC+00:00)

Cosmos 2082 Rocket - Pass Details

Date: 24 September 2020
Orbit: 834 x 853 km, 71.0° (Epoch: 25 October)

Event Time Altitude Azimuth Distance (km) Brightness Sun altitude
Rises 19:13:46 0° 341° (NNW) 3,392 5.9 -23.4°
Reaches altitude 10° 19:16:27 10° 351° (N) 2,455 5.0 -23.8°
Enters shadow 19:21:08 34° 46° (NE) 1,362 3.1 -24.6°
